Location: Makanda
(37.6176°N, 89.2090°W)
Time: 00:08:16
(UTC+00:00)

Cosmos 1452 Rocket - Pass Details

Date: 23 September 2019
Orbit: 768 x 774 km, 74.1° (Epoch: 14 October)

Event Time Altitude Azimuth Distance (km) Brightness Sun altitude
Rises 00:57:58 0° 169° (S) 3,222 6.5 -13.4°
Reaches altitude 10° 01:00:35 10° 158° (SSE) 2,299 5.7 -13.9°
Maximum altitude 01:05:03 29° 99° (E) 1,371 4.2 -14.8°
Drops below altitude 10° 01:09:32 10° 41° (NE) 2,312 5.7 -15.7°
Sets 01:12:09 0° 30° (NNE) 3,243 6.6 -16.2°
